www.pogodaiklimat.ru
Время
(UTC), дата
22 11.06
23 11.06
00 12.06
01 12.06
02 12.06
03 12.06
04 12.06
05 12.06
06 12.06
07 12.06
08 12.06
09 12.06
10 12.06
11 12.06
12 12.06
13 12.06
14 12.06
15 12.06
16 12.06
17 12.06
18 12.06
19 12.06
20 12.06
21 12.06
22 12.06
23 12.06
00 13.06
01 13.06
02 13.06
03 13.06
04 13.06
05 13.06
06 13.06
07 13.06
08 13.06
09 13.06
10 13.06
11 13.06
12 13.06
13 13.06
14 13.06
15 13.06
16 13.06
17 13.06
18 13.06
19 13.06
20 13.06
21 13.06
22 13.06
23 13.06
00 14.06
01 14.06
02 14.06
03 14.06
04 14.06
05 14.06
06 14.06
07 14.06
08 14.06
09 14.06
10 14.06
11 14.06
12 14.06
13 14.06
14 14.06
15 14.06
16 14.06
17 14.06
18 14.06
19 14.06
20 14.06
21 14.06
22 14.06
23 14.06
00 15.06
01 15.06
02 15.06
03 15.06
04 15.06
05 15.06
06 15.06
07 15.06
08 15.06
09 15.06
10 15.06
11 15.06
12 15.06
13 15.06
14 15.06
15 15.06
16 15.06
17 15.06
18 15.06
19 15.06
20 15.06
21 15.06
22 15.06
23 15.06
00 16.06
01 16.06
02 16.06
03 16.06
04 16.06
05 16.06
06 16.06
07 16.06
08 16.06
09 16.06
10 16.06
11 16.06
12 16.06
13 16.06
14 16.06
15 16.06
16 16.06
17 16.06
18 16.06
19 16.06
20 16.06
21 16.06
22 16.06
23 16.06
00 17.06
01 17.06
02 17.06
03 17.06
04 17.06
05 17.06
06 17.06
07 17.06
08 17.06
09 17.06
10 17.06
11 17.06
12 17.06
13 17.06
14 17.06
15 17.06
16 17.06
17 17.06
18 17.06
19 17.06
20 17.06
21 17.06
22 17.06
23 17.06
00 18.06
01 18.06
02 18.06
03 18.06
04 18.06
05 18.06
06 18.06
07 18.06
08 18.06
09 18.06
10 18.06
11 18.06
12 18.06
13 18.06
14 18.06
15 18.06
16 18.06
17 18.06
18 18.06
19 18.06
20 18.06
Ветер
(напр.,м/с)
Видим. Явления Облачность Т
(С)
Тd
(С)
f
(%)
Тe
(С)
Тes
(С)
Комфортность P
(гПа)
Po
(гПа)
Тmin
(С)
Tmax
(С)
R
(мм)
R24
(мм)
S
(см)
С 5 45 км 8/0
[Ac trans Ci fib]
+19.5 +15.8 79 +21 +21 комфорт 1017.5 1010.5
С 1 35 км 5/0
[Ac trans Ci fib]
+17.6 +15.4 87 +19 +19 тепло 1017.4 1010.4
З 2 20 км 6/0
[Ac trans Ci fib]
+16.2 +15.2 94 +16 +16 тепло 1017.4 1010.3
СЗ 1 22 км 8/6 720 м
[Sc Ci fib]
+16.6 +15.5 93 +17 +17 тепло 1017.2 1010.1
З 1 22 км 8/3 1080 м
[Sc As trans]
+16.6 +15.6 94 +17 +17 тепло 1016.6 1009.6
З 2 18 км 8/4 540 м
[Cu med, cong Ac trans]
+17.1 +16.1 94 +17 +17 тепло 1016.5 1009.5
З 3 15 км 9/0
[Ac trans Ci sp]
+17.2 +15.8 91 +17 +17 тепло 1016.5 1009.5
З 3 15 км 9/5 800 м
[Sc Ac As]
+17.5 +15.6 89 +17 +18 тепло 1016.4 1009.4
З 4 12 км 10/9 300 м
[Sc]
+17.8 +15.7 88 +18 +18 тепло 1016.5 1009.5 +15.5 +24.5
З 4 13 км 10/9 400 м
[Cu Sc]
+18.1 +15.7 86 +18 +18 тепло 1016.4 1009.4
З 6 16 км 10/6 450 м
[Cu Sc Ac As]
+19.2 +15.5 79 +20 +21 тепло 1016.2 1009.2
З 5 20 км в посл. час ливневой дождь 10/9 500 м
[Cu Sc]
+19.3 +15.5 79 +21 +21 комфорт 1015.9 1008.9 0.0
З 7 25 км в посл. час ливневой дождь 9/9 600 м
[Cb calv]
+19.7 +15.3 76 +21 +22 комфорт 1016.1 1009.1
З 8-11
{16}
40 км 9/8 1000 м
[Cu Sc Ac trans Ci fib]
+21.1 +14.2 65 +24 +24 комфорт 1016.0 1009.1
СЗ 10 40 км {ливн. дождь} 9/6 1140 м
[Cu Sc Ac trans Ci fib]
+20.9 +12.7 59 +23 +23 комфорт 1016.6 1009.6 0.0
СЗ 10 45 км 8/6 1410 м
[Cu med, cong Ci sp]
+20.2 +10.0 52 +21 +21 комфорт 1016.9 1009.9
СЗ 9 45 км 8/5 1500 м
[Cu Sc Ac lent Ci sp]
+20.1 +9.3 50 +21 +21 комфорт 1017.5 1010.5
СЗ 8 45 км 6/5 1500 м
[Cu Sc Ci fib]
+20.1 +9.0 49 +21 +22 комфорт 1018.0 1011.0
СЗ 9-14
{15}
45 км 6/5 1500 м
[Cu Sc Ci fib]
+19.5 +8.7 50 +20 +20 тепло 1018.4 1011.4
СЗ 9-12
{14}
45 км 5/4 1500 м
[Cu med, cong Ci fib]
+19.0 +8.9 52 +19 +19 тепло 1019.0 1012.0
СЗ 7 45 км 4/4 1000 м
[Sc diur, vesp Ci fib]
+18.0 +8.8 55 +17 +17 по сезону 1019.8 1012.7 +17.6 +21.7
СЗ 9-13
{13}
40 км 3/3 1200 м
[Cu med, cong]
+16.4 +8.5 60 +15 +15 по сезону 1020.7 1013.6
СЗ 6-9
{12}
40 км 1/1 1200 м
[Cu hum Ci fib]
+14.1 +8.5 69 +12 +12 холодно 1021.8 1014.6
СЗ 4 45 км 1/1 1500 м
[Sc Ci fib]
+12.9 +7.6 70 +11 +11 прохладно 1022.6 1015.4
З 2-3
{6}
40 км 1/1 1500 м
[Sc]
+10.7 +7.6 81 +9 +9 прохладно 1023.2 1015.9
З 3-4
{6}
45 км 6/6 1380 м
[Sc]
+11.0 +8.4 84 +9 +9 прохладно 1023.8 1016.5
З 3 30 км 1/1 1000 м
[Sc Ci fib]
+9.9 +7.5 85 +8 +8 прохладно 1024.3 1017.0
З 2-3
{4}
26 км 1/1 1170 м
[Sc Ci fib]
+9.4 +7.7 89 +8 +8 по сезону 1024.5 1017.2
З 3-4
{4}
25 км 3/1 1170 м
[Sc Ci fib]
+9.0 +7.4 90 +6 +6 по сезону 1024.9 1017.6
З 3 23 км 1/0
[Ci fib]
+8.9 +7.4 90 +6 +6 холодно 1025.1 1017.8
З 3-4
{6}
25 км 6/6 1300 м
[Sc Ci fib]
+9.1 +7.8 92 +7 +7 прохладно 1025.6 1018.3
З 4-6
{6}
30 км 1/1 1300 м
[Sc Ci fib]
+10.9 +8.1 83 +8 +9 по сезону 1025.9 1018.6
СЗ 4 30 км 6/6 1000 м
[Sc Ci fib]
+12.0 +8.4 79 +10 +11 прохладно 1026.2 1019.0 +8.7 +18.1
З 5-8
{8}
30 км 3/3 600 м
[Cu Sc Ci fib]
+14.2 +9.1 71 +13 +15 по сезону 1026.7 1019.5
З 5 40 км 8/8 900 м
[Cu Sc]
+14.6 +7.8 64 +13 +14 тепло 1027.1 1019.9
СЗ 5 40 км 8/8 1200 м
[Sc]
+15.2 +7.0 58 +14 +15 по сезону 1027.4 1020.2
СЗ 6-8
{9}
40 км 5/5 1230 м
[Sc Ci fib]
+16.8 +8.0 56 +16 +19 по сезону 1027.4 1020.3
СЗ 6-9
{10}
40 км 5/5 1230 м
[Cu hum]
+17.5 +7.4 51 +17 +20 тепло 1027.3 1020.2
СЗ 5 40 км 5/5 1380 м
[Cu hum]
+18.4 +8.5 52 +18 +23 по сезону 1027.3 1020.2
СЗ 6-8
{9}
40 км 5/5 1410 м
[Cu hum]
+18.9 +8.4 50 +19 +22 по сезону 1027.2 1020.1
З 7-13
{13}
40 км 3/3 1470 м
[Cu hum]
+19.7 +8.5 48 +20 +23 тепло 1026.8 1019.7
СЗ 6 40 км 3/3 1500 м
[Cu hum Ci fib]
+19.7 +8.9 50 +20 +23 тепло 1026.7 1019.6
СЗ 4-6
{8}
40 км 1/1 1500 м
[Cu hum Ci fib]
+20.8 +9.6 49 +23 +26 комфорт 1026.1 1019.1
СЗ 4-6
{7}
40 км 1/1 1500 м
[Cu hum Ci fib]
+20.5 +8.9 47 +22 +24 комфорт 1025.8 1018.8
СЗ 3 40 км ясно +20.0 +9.3 50 +22 +22 комфорт 1025.8 1018.8 +12.0 +21.0
СЗ 2-3
{5}
40 км ясно +18.7 +9.6 55 +20 +20 тепло 1025.9 1018.8
С 1-2
{2}
40 км ясно +16.0 +10.2 68 +17 +17 по сезону 1025.7 1018.6
З 1-1
{5}
40 км ясно +13.7 +9.6 76 +14 +14 по сезону 1025.7 1018.5
СВ 1-1
{1}
40 км ясно +12.3 +9.5 83 +12 +12 по сезону 1025.6 1018.4
СЗ 1-1
{1}
35 км ясно +10.9 +8.8 87 +11 +11 по сезону 1025.8 1018.5
С 1 35 км ясно +10.4 +9.1 92 +10 +10 по сезону 1025.6 1018.3
СВ 2-2
{2}
35 км ясно +11.2 +9.2 87 +10 +10 по сезону 1025.2 1017.9
В 2-2
{2}
35 км ясно +10.6 +9.0 90 +9 +9 по сезону 1024.8 1017.5
В 2-2
{3}
30 км местами туман поземный ясно +10.4 +9.1 92 +9 +9 прохладно 1024.3 1017.0
ЮВ 1-1
{2}
30 км местами туман поземный ясно +11.1 +8.9 86 +11 +11 по сезону 1024.0 1016.7
ЮВ 2-3
{3}
30 км 1/0
[Ci fib]
+14.2 +9.7 74 +14 +15 тепло 1023.7 1016.5
Ю 2 40 км ясно +16.9 +10.1 64 +17 +21 тепло 1023.8 1016.7 +9.7 +20.0
ЮЗ 3-5
{5}
40 км ясно +19.2 +10.2 56 +20 +26 тепло 1023.7 1016.7
Ю 3-6
{6}
40 км 3/0
[Ci fib]
+20.5 +10.1 51 +22 +30 комфорт 1022.9 1015.9
Ю 4 40 км 4/0
[Ci fib]
+21.2 +9.3 47 +23 +31 комфорт 1022.5 1015.5
Ю 5-8
{8}
40 км 1/0
[Ci fib]
+22.0 +10.3 47 +24 +32 комфорт 1021.6 1014.6
Ю 4-6
{8}
40 км 3/0
[Ci fib]
+23.0 +11.4 48 +25 +36 комфорт 1020.9 1014.0
Ю 4 40 км 1/0
[Ci sp]
+24.4 +11.7 45 +26 +37 жарко 1020.2 1013.3
З 4-7
{7}
40 км 1/0
[Ci sp]
+25.0 +11.2 42 +26 +36 жарко 1020.0 1013.1
ЮЗ 4-6
{8}
40 км 4/0
[Ci sp]
+26.0 +11.7 41 +27 +35 жарко 1019.3 1012.4
ЮЗ 3 40 км 6/0
[Ci fib]
+26.6 +12.1 41 +28 +35 жарко 1018.7 1011.9
З 5-6
{7}
40 км 8/0
[Ci fib]
+26.5 +10.4 36 +27 +30 жарко 1018.2 1011.4
З 4-6
{6}
45 км 8/0
[Ci sp]
+26.0 +10.3 37 +27 +28 жарко 1018.0 1011.1
З 2 45 км 8/0
[Ci sp]
+25.6 +12.4 44 +27 +28 жарко 1017.7 1010.8 +17.0 +26.9
З 1-2
{3}
45 км 8/0
[Ci sp]
+23.2 +11.7 48 +26 +26 жарко 1017.5 1010.6
З 1-1
{2}
45 км 6/0
[Ci sp]
+20.2 +12.9 63 +23 +23 комфорт 1017.7 1010.7
штиль 0 45 км 8/0
[Ci sp]
+19.0 +12.9 68 +20 +20 тепло 1017.9 1010.9
СЗ 3-6
{6}
45 км 8/0
[Ci fib]
+17.1 +12.8 76 +17 +17 тепло 1018.2 1011.1
С 2-3
{6}
45 км 8/0
[Ci fib]
+17.4 +13.4 77 +18 +18 тепло 1018.4 1011.4
З 2 45 км 8/0
[Ci sp]
+15.8 +13.1 84 +16 +16 тепло 1018.6 1011.5
СЗ 2-2
{3}
35 км 3/0
[Ci sp]
+15.0 +13.0 88 +15 +15 тепло 1018.8 1011.7
З 3-3
{3}
25 км 9/0
[Ci sp]
+14.3 +12.8 91 +13 +13 тепло 1019.0 1011.9
СЗ 3 12 км 9/0
[Ci sp]
+13.5 +12.7 95 +12 +12 по сезону 1019.5 1012.3
СЗ 3 7000 м дымка 9/0
[Ac trans Ci sp]
+13.8 +13.4 97 +13 +13 тепло 1019.7 1012.6
СЗ 3 7000 м дымка 9/1 270 м
[St Ac trans Ci fib]
+14.7 +13.8 94 +14 +14 тепло 1020.2 1013.1
СЗ 3 10 км 9/6 100 м
[St Ac trans]
+15.3 +13.8 91 +15 +15 тепло 1020.6 1013.5 +13.3 +26.0
С 3 15 км 9/6 300 м
[St Ac trans]
+15.6 +13.2 86 +15 +16 тепло 1020.9 1013.8
СЗ 3 25 км 9/6 360 м
[Sc Ac trans]
+16.5 +13.1 80 +16 +18 тепло 1021.1 1014.0
СЗ 3 30 км 8/3 480 м
[Cu Sc Ac trans Ci fib]
+17.4 +12.5 73 +17 +22 тепло 1021.3 1014.2
СЗ 1 35 км 8/1 800 м
[Cu hum Ac As Ci fib]
+19.5 +11.5 60 +22 +32 комфорт 1021.0 1014.0
СЗ 4-6
{9}
35 км 4/1 1200 м
[Cu hum Ac As Ci fib]
+19.9 +10.9 56 +21 +30 комфорт 1020.9 1013.9
С 3 40 км 3/1 1320 м
[Cu hum Ac trans Ci fib]
+20.6 +9.6 49 +22 +34 комфорт 1020.7 1013.7
С 3 45 км 4/1 1500 м
[Cu hum Ac trans Ci fib]
+21.8 +9.5 45 +23 +33 комфорт 1020.4 1013.4
СЗ 4 45 км 5/1 1500 м
[Cu hum Ci fib]
+22.1 +8.5 42 +23 +30 комфорт 1020.3 1013.3
СЗ 3 50 км 8/1 1500 м
[Cu hum Ci fib]
+22.2 +8.6 42 +24 +29 комфорт 1020.2 1013.2
СЗ 3 50 км 9/1 1500 м
[Cu hum Ci fib]
+22.0 +8.5 42 +23 +27 комфорт 1019.7 1012.7
СЗ 4-6
{6}
45 км 6/0
[Ci fib]
+21.7 +10.0 47 +23 +25 комфорт 1019.5 1012.5
СЗ 3 45 км 6/0
[Ci fib]
+20.8 +10.3 51 +23 +24 комфорт 1019.5 1012.5 +15.3 +22.8
СЗ 3-4
{4}
45 км 8/0
[Ci fib]
+18.6 +10.4 59 +19 +19 тепло 1019.6 1012.6
СЗ 3-4
{5}
45 км 6/0
[Ci fib]
+17.0 +10.5 66 +17 +17 по сезону 1019.8 1012.7
С 3 45 км 5/0
[Ci fib]
+15.8 +10.5 71 +15 +15 по сезону 1020.2 1013.1
С 3-4
{4}
45 км 6/0
[Ci fib]
+14.9 +10.1 73 +14 +14 по сезону 1020.3 1013.2
СВ 3-4
{4}
45 км 5/0
[Ci fib]
+13.4 +9.8 79 +12 +12 по сезону 1020.1 1012.9
СВ 3 45 км 4/0
[Ci fib]
+12.3 +9.4 82 +11 +11 по сезону 1019.7 1012.5
СВ 2-3
{3}
40 км 5/0
[Ci fib]
+11.9 +9.1 83 +11 +11 тепло 1019.6 1012.4
СВ 1-2
{3}
40 км 3/0
[Ci fib]
+11.3 +9.1 86 +11 +11 тепло 1019.4 1012.2
СВ 2 45 км 1/0
[Ci fib]
+10.8 +9.0 89 +9 +9 по сезону 1019.1 1011.9
В 1-1
{2}
45 км 3/0
[Ci fib]
+11.3 +9.0 86 +11 +11 тепло 1019.0 1011.8
В 2-2
{2}
40 км 4/0
[Ci fib]
+13.5 +9.9 79 +13 +14 тепло 1018.8 1011.6
В 3 40 км 5/0
[Ci fib]
+15.5 +10.3 71 +15 +18 тепло 1018.4 1011.3 +10.6 +20.8
В 2-3
{4}
40 км 8/0
[Ci fib]
+17.8 +10.8 64 +18 +24 тепло 1018.0 1011.0
В 3-4
{5}
40 км 6/0
[Ci fib]
+20.2 +12.0 59 +22 +30 комфорт 1017.6 1010.6
В 3 40 км 8/0
[Ci fib]
+22.6 +13.2 55 +26 +35 жарко 1017.1 1010.2
В 4-7
{7}
40 км 8/0
[Ci fib]
+24.2 +14.2 54 +27 +36 жарко 1016.6 1009.7
ЮВ 4-8
{8}
40 км 8/0
[Ci fib]
+25.1 +14.5 52 +28 +37 жарко 1016.3 1009.5
ЮВ 4 40 км 8/1 1500 м
[Cu hum Ci fib]
+25.9 +15.2 52 +29 +37 душно 1015.6 1008.8
ЮВ 4 35 км 8/1 1440 м
[Cu hum Ci fib]
+27.1 +15.7 50 +30 +38 душно 1014.8 1008.0
Ю 4 35 км 6/1 1380 м
[Cu hum Ci fib]
+27.4 +15.1 47 +30 +37 жарко 1014.4 1007.6
ЮВ 4 35 км 6/1 1440 м
[Cu med, cong Ci fib]
+27.9 +16.3 49 +31 +36 душно 1014.0 1007.2
В 4 35 км 9/1 1470 м
[Cu med, cong Ci fib]
+28.1 +16.8 50 +32 +35 душно 1013.6 1006.8
ЮВ 5 35 км 9/1 1470 м
[Cu hum Ci fib]
+27.7 +17.0 52 +32 +33 очень
душно
1013.3 1006.5
В 5 35 км 9/1 1500 м
[Cu hum Ci fib]
+27.2 +17.0 54 +31 +32 душно 1013.1 1006.3 +15.5 +28.6
ЮВ 5 40 км 9/0
[Ac cuf Ci fib]
+26.2 +17.0 57 +30 +30 душно 1013.2 1006.4
В 3 40 км 9/0
[Ac cast Ci fib]
+25.3 +16.8 59 +29 +29 душно 1013.3 1006.5
ЮВ 3 40 км 9/0
[Ac trans Ci fib]
+24.3 +16.5 62 +28 +28 душно 1013.3 1006.5
В 4 35 км 8/0
[Ac trans Ci fib]
+23.4 +16.6 66 +28 +28 душно 1013.4 1006.5
ЮВ 2-3
{5}
35 км 6/0
[Ci fib]
+22.3 +16.8 71 +27 +27 душно 1013.6 1006.7
ЮВ 3 30 км 8/0
[Ci fib]
+21.6 +16.6 73 +25 +25 комфорт 1013.3 1006.4
В 2-3
{5}
30 км 8/0
[Ci sp]
+19.3 +16.0 81 +22 +22 комфорт 1013.5 1006.5
В 2-3
{4}
25 км 8/0
[Ci sp]
+18.6 +15.9 84 +20 +20 тепло 1013.2 1006.2
В 2 23 км 5/0
[Ci sp]
+18.1 +15.7 86 +19 +19 тепло 1012.9 1005.9
В 3-4
{4}
20 км 4/0
[Ci sp]
+18.2 +15.8 86 +19 +19 тепло 1012.9 1005.9
В 2-4
{4}
25 км 3/0
[Ci fib]
+20.6 +16.3 76 +24 +26 комфорт 1012.6 1005.7
ЮВ 2 30 км 3/0
[Ci fib]
+23.1 +16.5 66 +28 +31 душно 1013.1 1006.2 +17.9 +27.2
ЮВ 3-4
{5}
35 км 1/0
[Ci fib]
+25.5 +17.1 60 +29 +35 душно 1013.1 1006.3
Ю 4-6
{6}
40 км 1/0
[Ci sp]
+27.0 +17.4 56 +31 +38 душно 1013.4 1006.6
ЮВ 5 40 км 1/0
[Ci sp]
+28.7 +17.2 50 +33 +40 очень
душно
1013.0 1006.3
Ю 5-7
{7}
40 км 3/0
[Ci fib]
+30.3 +16.3 43 +34 +41 очень
душно
1012.6 1005.9
Ю 6-8
{8}
40 км 3/1 1500 м
[Cu hum Ac trans Ci fib]
+31.6 +14.0 34 +33 +38 жарко 1012.5 1005.8
ЮВ 7 40 км 4/1 1500 м
[Cu hum Ci fib]
+32.4 +14.1 33 +34 +38 очень
жарко
1012.1 1005.4
Ю 7 40 км 4/1 2000 м
[Cu hum Ci fib]
+32.6 +12.7 30 +33 +37 жарко 1011.9 1005.2
Ю 6-8
{10}
40 км 3/1 2000 м
[Cu hum Ci fib]
+32.6 +13.5 31 +34 +38 очень
жарко
1011.8 1005.1
Ю 6 40 км 4/0
[Ci fib]
+32.5 +13.3 31 +33 +37 жарко 1011.9 1005.2
Ю 5-8
{11}
40 км 4/0
[Ci fib]
+32.5 +13.5 32 +34 +36 очень
жарко
1011.6 1004.9
Ю 6-8
{9}
40 км 1/0
[Ci fib]
+32.2 +14.6 35 +34 +35 душно 1011.5 1004.8
Ю 6 40 км 1/0
[Ci fib]
+31.7 +14.9 36 +34 +34 душно 1011.7 1005.0 +23.1 +33.2
ЮВ 4-6
{7}
40 км 1/0
[Ci fib]
+30.6 +16.1 42 +34 +34 очень
душно
1011.8 1005.1
ЮВ 3-5
{5}
40 км 1/0
[Ci fib]
+28.9 +16.1 46 +32 +32 душно 1012.2 1005.5
ЮВ 3 40 км 1/0
[Ci fib]
+27.6 +16.3 50 +31 +31 душно 1012.6 1005.8
В 2-4
{4}
40 км 1/0
[Ci fib]
+23.8 +16.9 65 +27 +27 жарко 1012.8 1006.0
В 2-3
{4}
40 км 1/0
[Ci fib]
+22.7 +17.2 71 +28 +28 душно 1012.8 1005.9
ЮВ 2 40 км 1/0
[Ci fib]
+22.0 +17.0 73 +26 +26 душно 1013.2 1006.3
В 2-3
{7}
35 км 1/0
[Ci fib]
+21.0 +16.7 76 +25 +25 комфорт 1013.2 1006.3
З 3-3
{5}
35 км ясно +19.4 +16.3 82 +22 +22 комфорт 1013.2 1006.2
З 1-2
{7}
30 км ясно +18.8 +16.4 86 +21 +21 комфорт 1013.2 1006.2
З 1-2
{3}
30 км ясно +18.6 +16.2 86 +21 +21 комфорт 1013.3 1006.3
З 1-1
{2}
30 км ясно +20.5 +16.6 78 +25 +27 комфорт 1013.1 1006.2
З 2 35 км ясно +21.6 +17.0 75 +26 +29 душно 1013.6 1006.7 +18.3 +31.6
З 1-2
{3}
35 км ясно +23.5 +17.3 68 +27 +35 душно 1013.7 1006.8
Ю 1-2
{2}
35 км ясно +26.2 +18.4 62 +31 +43 очень
душно
1013.3 1006.5
Ю 1 40 км ясно +28.2 +18.6 56 +33 +49 очень
душно
1012.8 1006.1
С 1-3
{4}
35 км ясно +30.3 +19.1 51 +36 +54 опасность
солнечного
удара
1012.6 1005.9
СЗ 2-4
{4}
40 км ясно +31.8 +17.3 42 +36 +52 опасность
солнечного
удара
1012.4 1005.7
З 5 40 км 1/1 1500 м
[Cu hum Ac trans]
+32.0 +20.0 49 +38 +46 очень
душно
1012.3 1005.6
З 4-6
{6}
40 км 1/1 1500 м
[Cu hum]
+31.7 +18.0 44 +36 +45 очень
душно
1012.0 1005.3
З 3-5
{6}
40 км 1/1 1500 м
[Cu med, cong Ci fib]
+32.7 +18.4 43 +37 +47 очень
душно
1011.6 1005.0
З 5 40 км 3/3 1500 м
[Cu med, cong Ci fib]
+32.6 +20.2 48 +39 +42 очень
душно
1011.3 1004.7
СЗ 4 35 км 5/1 1200 м
[Cu med, cong Ci ing]
+30.2 +20.3 55 +37 +40 очень
душно
1011.3 1004.6
З 2 30 км 6/3 1500 м
[Cb cap Ac cuf Ci ing]
+29.0 +20.5 60 +36 +37 очень
душно
1011.2 1004.5
З 2 30 км 4/0
[Ac cuf Ci ing]
+27.3 +21.4 70 +35 +36 очень
душно
1011.1 1004.4 +21.6 +33.7
С 1-1
{3}
28 км 4/0
[Ac cast Ci ing]
+25.9 +21.0 74 +32 +33 очень
душно
1011.4 1004.6
Ю 1 25 км 5/0
[Ac cast Ci fib]
+24.6 +21.0 80 +31 +31 очень
душно
1011.5 1004.7
Местоположение метеостанции Ганновер (Германия): широта 52.47 долгота 9.70 высота над уровнем моря 55 м.
В архиве по умолчанию представлена погода в Ганновере за последнюю неделю. Архивные данные за месяц целиком и за предыдущие месяцы, начиная с января 2011 года, Вы можете получить, выбрав интересующий диапазон дат из раскрывающегося списка и нажав кнопку "Найти!".
*Определитесь, кто Вы:
Внимание! Время в таблицах - всемирное. Для получения местного времени необходимо прибавить поправку, которая равна 1 ч.
Смотрите также архив погоды в соседних городах и на ближайших метеорологических станциях:
Партнеры нашего сайта:      
Пояснения к столбцам:
  • Ветер - указаны скорость ветра в м/с - средняя за 10 мин, порывы в срок и между сроками (в фигурных скобках) и направление, откуда дует ветер: С - северный,
  • СВ - северо-восточный, В - восточный, ЮВ - юго-восточный, Ю - южный, ЮЗ - юго-западный, З - западный, СЗ - северо-западный.
  • Видимость - горизонтальная дальность видимости в метрах или километрах. При видимости от 1 до 10 км при отсутствии осадков обычно наблюдается дымка, при ухудшении видимости до 1 км и менее - туман. В сухую погоду видимость может ухудшаться дымом, пылью или мглою.
  • Явления - указаны атмосферные явления, наблюдавшиеся в срок или в последний час перед сроком; фигурными скобками обозначены явления, наблюдавшиеся между сроками (за 1-3 часа до срока); квадратными скобками обозначены град или гололедные отложения с указанием их диаметра в мм.
  • Облачность - указаны через наклонную черту общая и нижняя облачность в баллах и высота нижней границы облаков в метрах; квадратными скобками обозначены формы облаков: Ci - перистые, Cs - перисто-слоистые, Cc - перисто-кучевые, Ac - высококучевые, As - высокослоистые, Sc - слоисто-кучевые, Ns - слоисто-дождевые, Cu - кучевые, Cb - кучево-дождевые. Подробнее классификацию облаков см. в Атласе облаков (PDF).
  • T - Температура воздуха - температура, измеренная на высоте 2 м над землей.
  • Td - Температура точки росы - температура, при понижении до которой содержащийся в воздухе водяной пар достигнет насыщения.
  • f - Относительная влажность воздуха - влажноcть воздуха, измеренная на высоте 2 м над землей.
  • Te - Эффективная температура - температура, которую ощущает одетый по сезону человек в тени. Характеристика душности погоды. При расчете учитывается влияние влажности воздуха и скорости ветра на теплоощущения человека.
  • Tes - Эффективная температура на солнце - температура, которую ощущает человек, с поправкой на солнечный нагрев. Характеристика знойности погоды. Зависит от высоты солнца над горизонтом, облачности и скорости ветра. Ночью, в пасмурную погоду, а также при ветре 12 м/с и более поправка равна нулю.
  • P - Атмосферное давление - приведенное к уровню моря атмосферное давление.
  • Po - Атмосферное давление - измеренное на уровне метеостанции атмосферное давление.
  • Tmin - Минимальная температура - минимум температуры воздуха на высоте 2 м над землей.
  • Tmax - Максимальная температура - максимум температуры воздуха на высоте 2 м над землей.
  • R - Количество осадков - Количество выпавших осадков за период времени, мм. При наведении курсора мыши на число - период времени, за который выпало указанное количество осадков.
  • R24 - Количество осадков - Количество выпавших осадков за 24 часа, мм.
  • S - Снежный покров - Высота снежного покрова, см. При наведении курсора мыши на число - состояние снежного покрова и степень покрытия местности в баллах.